Flag for U.S.A. Weather past 2 weeks in Salinas, California, U.S.A.

Now
52 °F

Clear.


Feels Like: 52 °F
Forecast: 51 / 66 °F
Wind: No wind

Location: Salinas Municipal Airport

Current Time: Oct 21, 2014 at 8:20:35 AM

Latest Report: Oct 21, 2014 at 7:53 AM


Visibility: 10 mi

Pressure: 30.11 "Hg

Humidity: 86%

Dew point: 48 °F

Location of SalinasLocation

Historic Weather in Salinas — Graph

°F

Salinas temperature yesterday

Maximum temperature yesterday: 74 °F (at 12:53 PM)
Minimum temperature yesterday: 58 °F (at 11:53 PM)
Average temperature yesterday: 64 °F

Past Weeks' High & Low Weather Summary

 TemperatureHumidityPressure
High92 °F (Oct 12, 1:53 PM)100% (Oct 12, 6:00 AM)30.10 "Hg (Oct 12, 6:00 AM)
Low50 °F (Oct 6, 7:00 AM)11% (Oct 12, 1:53 PM)29.83 "Hg (Oct 14, 4:53 PM)
Average64 °F70%29.97 "Hg
* Reported Oct 6 7:00 AM — Oct 21 6:53 AM, Salinas, Weather by CustomWeather, © 2014

Note: Actual official high and low records may vary slightly from our data, if they occured in-between our weather recording intervals... More about our weather records

Advertising

Salinas weather history for previous 24 hours

 ConditionsComfort  
Time TempWeatherWind HumidityBarometerVisibility
6:53 AM
Oct 21
51 °FClear.No wind86%30.09 "Hg10 mi
5:53 AM53 °FClear.5 mph83%30.09 "Hg10 mi
4:53 AM53 °FClear.No wind83%30.08 "Hg10 mi
3:53 AM54 °FClear.3 mph83%30.09 "Hg10 mi
2:53 AM55 °FClear.No wind83%30.10 "Hg10 mi
1:53 AM55 °FClear.No wind83%30.10 "Hg10 mi
12:53 AM57 °FPassing clouds.No wind81%30.10 "Hg10 mi
11:53 PM
Oct 20
58 °FPassing clouds.No wind84%30.09 "Hg10 mi
10:53 PM59 °FClear.No wind84%30.08 "Hg10 mi
9:53 PM62 °FClear.3 mph80%30.06 "Hg10 mi
8:53 PM62 °FClear.3 mph80%30.05 "Hg10 mi
7:53 PM63 °FClear.9 mph78%30.04 "Hg10 mi
6:53 PM65 °FScattered clouds.8 mph70%30.02 "Hg10 mi
5:53 PM66 °FOvercast.9 mph70%30.01 "Hg10 mi
4:53 PM67 °FMostly cloudy.5 mph71%30.00 "Hg10 mi
3:53 PM67 °FMostly cloudy.12 mph68%30.00 "Hg10 mi
2:53 PM68 °FMostly cloudy.14 mph70%29.99 "Hg10 mi
1:53 PM69 °FMostly cloudy.14 mph70%29.99 "Hg10 mi
12:53 PM74 °FMostly cloudy.10 mph53%29.98 "Hg10 mi
11:53 AM72 °FSunny.No wind57%29.99 "Hg10 mi
10:53 AM70 °FSunny.No wind66%30.00 "Hg10 mi
9:53 AM66 °FSunny.3 mph75%30.00 "Hg10 mi
8:53 AM64 °FSunny.8 mph84%29.98 "Hg10 mi
Weather by CustomWeather, © 2014

See weather overviewHow to use our weather pages